Home   Weather   Truro   Past weeks

Flag for United Kingdom Past Weather in Truro, England, United Kingdom — Yesterday and Last 2 Weeks

Now
61 °F

Scattered clouds.


Feels Like: 61 °F
Forecast: 53 / 60 °F
Wind: 15 mph from West

Location: Culdrose

Current Time: Sep 29, 2016 at 1:00:16 PM

Latest Report: Sep 29, 2016 at 11:50 AM


Visibility: N/A

Pressure: 30.07 "Hg

Humidity: 72%

Dew Point: 52 °F

Location of TruroLocation

Past Weather in Truro — Graph

°F

Truro Temperature Yesterday

Maximum temperature yesterday: 61 °F (at 8:50 AM)
Minimum temperature yesterday: 54 °F (at 12:50 AM)
Average temperature yesterday: 60 °F

High & Low Weather Summary for the Past Weeks

 TemperatureHumidityPressure
High68 °F (Sep 14, 12:50 PM)100% (Sep 14, 11:50 PM)30.33 "Hg (Sep 14, 11:50 PM)
Low48 °F (Sep 18, 5:50 AM)52% (Sep 23, 2:50 PM)29.74 "Hg (Sep 24, 9:50 PM)
Average59 °F85%30.09 "Hg
* Reported Sep 14 11:50 AM — Sep 29 11:50 AM, Truro, Weather by CustomWeather, © 2016

Note: Actual official high and low records may vary slightly from our data, if they occured in-between our weather recording intervals... More about our weather records

Advertising

Truro Weather History for the Previous 24 Hours

Scroll right to see more
 ConditionsComfort  
Time TempWeatherWind HumidityBarometerVisibility
11:50 AM
Thu, Sep 29
61 °FScattered clouds.15 mph72%30.07 "HgN/A
10:50 AM61 °FScattered clouds.14 mph83%30.07 "HgN/A
9:50 AM61 °FScattered clouds.13 mph83%30.07 "HgN/A
8:50 AM59 °FLight rain. Broken clouds.8 mph94%30.07 "HgN/A
7:50 AM57 °FBroken clouds.8 mph94%30.04 "HgN/A
6:50 AM59 °FLight rain. Partly cloudy.12 mph94%30.04 "HgN/A
5:50 AM61 °FDrizzle. Low clouds.16 mph100%30.04 "Hg0 mi
4:50 AM61 °FDrizzle. Mostly cloudy.20 mph100%30.04 "Hg1 mi
3:50 AM61 °FDrizzle. Mostly cloudy.20 mph100%30.07 "Hg2 mi
2:50 AM61 °FDrizzle. Mostly cloudy.17 mph94%30.09 "Hg3 mi
1:50 AM61 °FDrizzle. Low clouds.18 mph100%30.12 "Hg1 mi
12:50 AM61 °FDrizzle. Dense fog.18 mph100%30.12 "Hg0 mi
11:50 PM
Wed, Sep 28
61 °FDrizzle. Dense fog.18 mph100%30.15 "Hg0 mi
10:50 PM61 °FDrizzle. Dense fog.16 mph100%30.18 "Hg0 mi
9:50 PM61 °FDrizzle. Dense fog.16 mph100%30.18 "Hg0 mi
8:50 PM61 °FDrizzle. Dense fog.15 mph100%30.21 "Hg0 mi
7:50 PM61 °FDrizzle. Dense fog.15 mph100%30.21 "Hg0 mi
6:50 PM61 °FDrizzle. Dense fog.16 mph100%30.21 "Hg0 mi
5:50 PM61 °FDrizzle. Dense fog.14 mph100%30.24 "Hg0 mi
4:50 PM61 °FDrizzle. Dense fog.13 mph100%30.24 "Hg0 mi
3:50 PM61 °FDrizzle. Mostly cloudy.10 mph100%30.27 "Hg0 mi
2:50 PM61 °FDrizzle. Mostly cloudy.12 mph100%30.30 "Hg0 mi
1:50 PM61 °FFog.13 mph100%30.30 "Hg0 mi
Weather by CustomWeather, © 2016

See weather overviewHow to use our weather pages